Date,TemperatureHighF,TemperatureAvgF,TemperatureLowF,DewpointHighF,DewpointAvgF,DewpointLowF,HumidityHigh,HumidityAvg,HumidityLow,PressureMaxIn,PressureMinIn,WindSpeedMaxMPH,WindSpeedAvgMPH,GustSpeedMaxMPH,PrecipitationSumIn
2013-3-1,29.0,14.5,4.0,21.0,10.1,1.0,92,82,55,0.00,40.00,11,5,12,0.00
2013-3-2,24.0,14.2,1.0,18.0,8.1,0.0,93,78,48,0.00,40.00,22,10,27,0.00
2013-3-3,31.0,24.5,12.0,21.0,15.2,7.0,80,67,54,0.00,40.00,20,10,26,0.00
2013-3-4,29.0,25.6,24.0,25.0,22.0,14.0,96,87,53,0.00,40.00,22,14,30,0.02
2013-3-5,25.0,21.6,18.0,23.0,19.4,16.0,96,90,81,0.00,40.00,21,14,24,0.01
2013-3-6,34.0,18.1,3.0,18.0,12.5,1.0,92,80,41,0.00,40.00,12,4,14,0.00
2013-3-7,29.0,15.7,-3.0,19.0,10.5,-4.0,91,81,65,0.00,40.00,20,9,25,0.00
2013-3-8,35.0,27.3,22.0,27.0,22.6,19.0,91,83,69,0.00,40.00,14,8,21,0.00
2013-3-9,27.0,25.2,22.0,27.0,22.6,19.0,95,89,76,0.00,40.00,31,15,35,0.00
2013-3-10,23.0,15.6,4.0,19.0,11.8,0.0,90,85,72,0.00,40.00,26,18,32,0.00
2013-3-11,33.0,14.8,1.0,16.0,7.8,-2.0,91,75,40,0.00,40.00,11,5,12,0.00
2013-3-12,22.0,16.6,5.0,18.0,13.9,1.0,93,88,83,0.00,40.00,26,16,30,0.00
2013-3-13,21.0,9.2,-4.0,18.0,4.6,-8.0,92,81,71,0.00,40.00,19,9,26,0.00
2013-3-14,34.0,21.8,11.0,23.0,18.6,10.0,97,89,58,0.00,40.00,24,8,28,0.00
2013-3-15,21.0,14.6,3.0,18.0,11.6,1.0,91,88,77,0.00,40.00,23,16,27,0.08
2013-3-16,11.0,-0.3,-14.0,3.0,-4.9,-18.0,89,81,70,0.00,40.00,16,10,19,0.03
2013-3-17,20.0,1.9,-18.0,18.0,-2.2,-22.0,95,82,75,0.00,40.00,22,11,28,0.00
2013-3-18,24.0,16.1,6.0,23.0,14.1,1.0,97,93,83,0.00,40.00,34,21,42,0.06
2013-3-19,14.0,6.5,-1.0,1.0,-1.8,-8.0,82,68,54,0.00,40.00,19,16,24,0.01
2013-3-20,14.0,6.1,-3.0,3.0,-1.8,-9.0,78,70,60,0.00,40.00,20,14,24,0.00
2013-3-21,17.0,2.7,-10.0,9.0,-2.3,-13.0,89,79,64,0.00,40.00,9,5,9,0.00
2013-3-22,20.0,5.5,-8.0,12.0,1.4,-11.0,89,83,66,0.00,40.00,9,5,11,0.00
2013-3-23,27.0,16.1,3.0,19.0,11.9,0.0,92,83,69,0.00,40.00,9,7,10,0.00
2013-3-24,26.0,21.8,18.0,21.0,19.3,16.0,95,90,83,0.00,40.00,20,12,24,0.00
2013-3-25,26.0,21.0,12.0,19.0,17.3,9.0,90,85,73,0.00,40.00,19,15,22,0.00
2013-3-26,36.0,17.0,2.0,14.0,8.6,0.0,93,73,39,0.00,40.00,7,4,9,0.00
2013-3-27,37.0,15.2,-6.0,19.0,8.1,-8.0,93,76,41,0.00,40.00,7,-5,7,0.00
2013-3-28,39.0,26.5,7.0,28.0,20.6,5.0,96,78,64,0.00,40.00,12,6,14,0.00
2013-3-29,37.0,28.1,19.0,30.0,25.8,18.0,98,92,69,0.00,40.00,8,2,11,0.00
2013-3-30,40.0,34.2,29.0,36.0,28.9,-99.9,99,86,66,0.00,40.00,12,6,14,0.00
2013-3-31,34.0,24.2,15.0,30.0,18.1,10.0,90,77,65,0.00,40.00,29,20,37,0.00